Regional Weather Roundup
Issued by NWS

Home | Current Version | Previous Version | Text Only | Print | Product List | Glossary Off
Versions: 1 2 3 4 5 6 7 8 9 10 11 12 13 14 15 16 17 18 19 20 21 22 23 24 25 26 27 28 29 30 31 32 33 34 35 36 37 38 39 40 41 42 43 44 45 46 47 48 49 50

000
ASUS45 KBOI 211710
RWRID

IDAHO REGIONAL WEATHER ROUNDUP
NATIONAL WEATHER SERVICE BOISE ID
1100 AM MDT THU MAY 21 2015

NOTE: "FAIR" INDICATES FEW OR NO CLOUDS BELOW 12000 FEET
WITH NO SIGNIFICANT WEATHER AND/OR OBSTRUCTIONS TO VISIBILITY

IDZ012-014-211800-
SOUTHWEST IDAHO


CITY           SKY/WX    TMP DP  RH WIND       PRES   REMARKS
BOISE          MOSUNNY   66  50  56 W3        29.91F
CALDWELL       SUNNY     64  46  52 SE10      29.93S
MOUNTAIN HOME  MOSUNNY   66  47  49 SE14      29.92F
$$

IDZ016-017-211800-
SOUTHCENTRAL IDAHO


CITY           SKY/WX    TMP DP  RH WIND       PRES   REMARKS
BURLEY         PTSUNNY   62  47  57 NE5       29.96F
JEROME         SUNNY     62  46  55 NE6       29.97F
TWIN FALLS     MOSUNNY   63  48  58 NE8       29.94F
$$

IDZ019>023-211800-
SOUTHEAST IDAHO


CITY           SKY/WX    TMP DP  RH WIND       PRES   REMARKS
IDAHO FALLS    PTSUNNY   58  42  55 CALM      30.03F
POCATELLO      MOSUNNY   59  49  69 NE6       30.01F
REXBURG        PTSUNNY   58  41  53 CALM      30.03F
$$

IDZ006-010-011-018-031-032-211800-
CENTRAL IDAHO MOUNTAINS


CITY           SKY/WX    TMP DP  RH WIND       PRES   REMARKS
MCCALL         CLOUDY    53  46  77 N5        29.98F
HAILEY         PTSUNNY   55  45  67 NW7       30.03F
STANLEY          N/A     51  41  68 CALM      30.03F
SALMON         PTSUNNY   61  43  51 CALM      29.97F
CHALLIS        PTSUNNY   57  40  52 E3        30.00F
$$

IDZ002-004-006-007-026-211800-
NORTHERN IDAHO


CITY           SKY/WX    TMP DP  RH WIND       PRES   REMARKS
LEWISTON       SUNNY     70  52  52 E6        29.87F
LOWELL           N/A     65  46  50 CALM      29.89F
COEUR D`ALENE  SUNNY    N/A N/A N/A MISG        N/A
MULLAN PASS    SUNNY     55  32  41 VRB3      30.02F
$$


USA.gov is the U.S. government's official web portal to all federal, state and local government web resources and services.